JDC5 KIND-KOWB

Flight info

Callsign JDC5
Flight time 0h 33m
Altitude 22000
Route DAWNN1 DAWNN
Aircraft CL60/M-SBDE1E2E3FGHIJ1J4J5J7M3RWXYZ/LB1V1D1

Departure

Time 2026-05-07 02:52
Airport Indianapolis International Airport (KIND)

Arrival

Time 2026-05-07 03:26
Airport Owensboro Daviess County Airport (KOWB)
Time Latitude Longitude Altitude Speed Heading
2026-05-07 02:37 39.73360 -86.28303 796 ft 7 kts 45°
2026-05-07 02:37 39.73390 -86.28256 796 ft 6 kts 75°
2026-05-07 02:37 39.73374 -86.28203 797 ft 6 kts 129°
2026-05-07 02:37 39.73344 -86.28161 797 ft 6 kts 133°
2026-05-07 02:38 39.73338 -86.28152 797 ft 0 kts 133°
2026-05-07 02:42 39.73337 -86.28150 797 ft 1 kts 132°
2026-05-07 02:42 39.73327 -86.28136 797 ft 2 kts 135°
2026-05-07 02:43 39.73306 -86.28123 797 ft 4 kts 161°
2026-05-07 02:43 39.73268 -86.28108 797 ft 6 kts 160°
2026-05-07 02:43 39.73233 -86.28084 797 ft 3 kts 141°
2026-05-07 02:43 39.73222 -86.28070 797 ft 2 kts 139°
2026-05-07 02:44 39.73198 -86.28058 798 ft 4 kts 178°
2026-05-07 02:44 39.73168 -86.28078 797 ft 5 kts 227°
2026-05-07 02:44 39.73136 -86.28121 797 ft 8 kts 233°
2026-05-07 02:44 39.73140 -86.28193 797 ft 8 kts 305°
2026-05-07 02:45 39.73193 -86.28267 797 ft 14 kts 314°
2026-05-07 02:45 39.73278 -86.28379 796 ft 18 kts 315°
2026-05-07 02:45 39.73369 -86.28498 795 ft 18 kts 314°
2026-05-07 02:45 39.73454 -86.28611 793 ft 11 kts 315°
2026-05-07 02:46 39.73507 -86.28682 793 ft 5 kts 305°
2026-05-07 02:46 39.73506 -86.28751 792 ft 10 kts 235°
2026-05-07 02:46 39.73440 -86.28835 791 ft 15 kts 225°
2026-05-07 02:46 39.73359 -86.28941 790 ft 18 kts 225°
2026-05-07 02:47 39.73271 -86.29053 788 ft 19 kts 224°
2026-05-07 02:47 39.73165 -86.29188 786 ft 23 kts 225°
2026-05-07 02:47 39.73063 -86.29318 783 ft 13 kts 224°
2026-05-07 02:47 39.72999 -86.29399 782 ft 11 kts 225°
2026-05-07 02:48 39.72954 -86.29452 781 ft 8 kts 203°
2026-05-07 02:48 39.72908 -86.29423 782 ft 6 kts 134°
2026-05-07 02:48 39.72897 -86.29408 782 ft 0 kts 134°
2026-05-07 02:49 39.72893 -86.29403 782 ft 2 kts 134°
2026-05-07 02:50 39.72865 -86.29366 783 ft 8 kts 134°
2026-05-07 02:50 39.72830 -86.29318 784 ft 4 kts 134°
2026-05-07 02:50 39.72802 -86.29326 783 ft 6 kts 225°
2026-05-07 02:50 39.72801 -86.29327 783 ft 0 kts 225°
2026-05-07 02:51 39.72780 -86.29353 783 ft 11 kts 225°
2026-05-07 02:52 39.72527 -86.29678 777 ft 105 kts 225°
2026-05-07 02:52 39.71802 -86.30620 1080 ft 175 kts 229°
2026-05-07 02:52 39.71003 -86.31843 2051 ft 185 kts 241°
2026-05-07 02:52 39.70271 -86.33160 3181 ft 184 kts 240°
2026-05-07 02:53 39.69479 -86.34581 4047 ft 216 kts 240°
2026-05-07 02:53 39.68683 -86.36388 5136 ft 243 kts 256°
2026-05-07 02:53 39.68358 -86.38536 6424 ft 256 kts 264°
2026-05-07 02:53 39.68152 -86.40837 7854 ft 261 kts 265°
2026-05-07 02:54 39.67849 -86.43089 9299 ft 264 kts 256°
2026-05-07 02:54 39.67014 -86.45173 10796 ft 270 kts 238°
2026-05-07 02:54 39.65614 -86.46924 11585 ft 300 kts 220°
2026-05-07 02:54 39.63491 -86.47913 11878 ft 351 kts 194°
2026-05-07 02:55 39.60910 -86.47684 12109 ft 393 kts 176°
2026-05-07 02:55 39.58137 -86.46967 12528 ft 410 kts 176°
2026-05-07 02:55 39.55315 -86.46250 13341 ft 420 kts 176°
2026-05-07 02:55 39.52447 -86.45526 14461 ft 420 kts 177°
2026-05-07 02:56 39.49593 -86.44813 15564 ft 421 kts 178°
2026-05-07 02:56 39.46678 -86.44090 16692 ft 421 kts 179°
2026-05-07 02:56 39.43828 -86.43391 17665 ft 423 kts 180°
2026-05-07 02:56 39.40880 -86.42670 18661 ft 423 kts 181°
2026-05-07 02:57 39.37961 -86.41965 19421 ft 428 kts 181°
2026-05-07 02:57 39.35036 -86.41262 20137 ft 432 kts 182°
2026-05-07 02:57 39.32074 -86.40550 20892 ft 433 kts 183°
2026-05-07 02:57 39.29079 -86.39837 21434 ft 439 kts 183°
2026-05-07 02:58 39.26073 -86.39127 21844 ft 445 kts 183°
2026-05-07 02:58 39.23009 -86.38729 22017 ft 426 kts 194°
2026-05-07 02:58 39.20218 -86.39365 22038 ft 398 kts 209°
2026-05-07 02:58 39.17688 -86.40670 22035 ft 387 kts 214°
2026-05-07 02:59 39.15226 -86.42020 22047 ft 384 kts 213°
2026-05-07 02:59 39.12759 -86.43362 22048 ft 383 kts 214°
2026-05-07 02:59 39.10283 -86.44710 22046 ft 383 kts 214°
2026-05-07 02:59 39.07824 -86.46046 22057 ft 383 kts 214°
2026-05-07 03:00 39.05345 -86.47389 22053 ft 382 kts 213°
2026-05-07 03:00 39.02919 -86.48701 22054 ft 382 kts 214°
2026-05-07 03:00 39.00444 -86.50040 22054 ft 383 kts 213°
2026-05-07 03:00 38.97950 -86.51386 22043 ft 382 kts 214°
2026-05-07 03:01 38.95509 -86.52699 22053 ft 379 kts 213°
2026-05-07 03:01 38.93096 -86.53994 22055 ft 375 kts 213°
2026-05-07 03:01 38.90702 -86.55280 22052 ft 374 kts 213°
2026-05-07 03:01 38.88269 -86.56587 22048 ft 374 kts 214°
2026-05-07 03:02 38.85854 -86.57883 22051 ft 374 kts 213°
2026-05-07 03:02 38.83419 -86.59190 22050 ft 375 kts 214°
2026-05-07 03:02 38.81004 -86.60483 22047 ft 375 kts 214°
2026-05-07 03:02 38.78567 -86.61787 22053 ft 375 kts 213°
2026-05-07 03:03 38.76169 -86.63068 22050 ft 375 kts 213°
2026-05-07 03:03 38.73762 -86.64352 22048 ft 374 kts 213°
2026-05-07 03:03 38.71346 -86.65640 22048 ft 372 kts 213°
2026-05-07 03:03 38.68947 -86.66914 22047 ft 366 kts 213°
2026-05-07 03:04 38.66606 -86.68158 21994 ft 363 kts 213°
2026-05-07 03:04 38.64269 -86.69405 21626 ft 366 kts 213°
2026-05-07 03:04 38.61903 -86.70661 21164 ft 361 kts 213°
2026-05-07 03:04 38.59598 -86.71882 20701 ft 357 kts 213°
2026-05-07 03:05 38.57312 -86.73096 20228 ft 356 kts 213°
2026-05-07 03:05 38.55043 -86.74300 19764 ft 356 kts 213°
2026-05-07 03:05 38.52723 -86.75529 19293 ft 354 kts 213°
2026-05-07 03:05 38.50465 -86.76726 18833 ft 353 kts 213°
2026-05-07 03:06 38.48211 -86.77931 18344 ft 352 kts 213°
2026-05-07 03:06 38.45955 -86.79140 17843 ft 350 kts 212°
2026-05-07 03:06 38.43706 -86.80343 17331 ft 349 kts 213°
2026-05-07 03:06 38.41428 -86.81560 16818 ft 350 kts 212°
2026-05-07 03:07 38.39198 -86.82748 16358 ft 351 kts 212°
2026-05-07 03:07 38.36933 -86.83955 15886 ft 353 kts 212°
2026-05-07 03:07 38.34654 -86.85165 15399 ft 353 kts 212°
2026-05-07 03:07 38.32380 -86.86371 14918 ft 353 kts 211°
2026-05-07 03:08 38.30118 -86.87569 14431 ft 353 kts 211°
2026-05-07 03:08 38.27815 -86.88752 13977 ft 357 kts 209°
2026-05-07 03:08 38.25458 -86.89788 13508 ft 354 kts 207°
2026-05-07 03:08 38.23172 -86.90760 13043 ft 338 kts 207°
2026-05-07 03:09 38.20979 -86.91695 12576 ft 325 kts 207°
2026-05-07 03:09 38.18886 -86.92587 12118 ft 314 kts 207°
2026-05-07 03:09 38.16819 -86.93470 11647 ft 306 kts 207°
2026-05-07 03:09 38.14828 -86.94321 11226 ft 298 kts 207°
2026-05-07 03:10 38.12906 -86.95138 10967 ft 286 kts 207°
2026-05-07 03:10 38.11036 -86.95932 10708 ft 275 kts 207°
2026-05-07 03:10 38.09261 -86.96687 10426 ft 268 kts 207°
2026-05-07 03:10 38.07496 -86.97439 10133 ft 261 kts 207°
2026-05-07 03:11 38.05810 -86.98156 9843 ft 256 kts 207°
2026-05-07 03:11 38.04119 -86.98877 9540 ft 251 kts 206°
2026-05-07 03:11 38.02484 -86.99572 9284 ft 246 kts 206°
2026-05-07 03:11 38.00847 -87.00270 9027 ft 250 kts 206°
2026-05-07 03:12 37.99181 -87.00983 8784 ft 253 kts 205°
2026-05-07 03:12 37.97517 -87.01693 8528 ft 254 kts 205°
2026-05-07 03:12 37.95827 -87.02412 8276 ft 254 kts 205°
2026-05-07 03:12 37.94126 -87.03137 8034 ft 261 kts 204°
2026-05-07 03:13 37.92366 -87.03887 7762 ft 264 kts 204°
2026-05-07 03:13 37.90619 -87.04628 7508 ft 264 kts 204°
2026-05-07 03:13 37.88884 -87.05364 7255 ft 264 kts 203°
2026-05-07 03:13 37.87116 -87.06113 7011 ft 265 kts 203°
2026-05-07 03:14 37.85367 -87.06854 6746 ft 264 kts 202°
2026-05-07 03:14 37.83621 -87.07593 6524 ft 265 kts 202°
2026-05-07 03:14 37.80117 -87.09073 6256 ft 265 kts 202°
2026-05-07 03:15 37.78332 -87.09827 6130 ft 266 kts 201°
2026-05-07 03:15 37.76579 -87.10567 6006 ft 266 kts 202°
2026-05-07 03:15 37.74802 -87.11317 5881 ft 263 kts 201°
2026-05-07 03:15 37.73053 -87.12053 5760 ft 264 kts 201°
2026-05-07 03:16 37.71286 -87.12798 5632 ft 269 kts 201°
2026-05-07 03:16 37.69497 -87.13552 5500 ft 272 kts 202°
2026-05-07 03:16 37.67728 -87.14295 5384 ft 262 kts 201°
2026-05-07 03:16 37.66024 -87.15009 5282 ft 251 kts 201°
2026-05-07 03:17 37.64391 -87.15691 5177 ft 240 kts 201°
2026-05-07 03:17 37.62775 -87.16171 5041 ft 233 kts 185°
2026-05-07 03:17 37.61161 -87.16135 4840 ft 228 kts 180°
2026-05-07 03:17 37.59573 -87.16064 4606 ft 224 kts 179°
2026-05-07 03:18 37.58080 -87.15691 4369 ft 220 kts 154°
2026-05-07 03:18 37.56879 -87.14527 4125 ft 214 kts 130°
2026-05-07 03:18 37.55875 -87.13161 3893 ft 210 kts 130°
2026-05-07 03:18 37.54881 -87.11824 3711 ft 205 kts 130°
2026-05-07 03:19 37.53720 -87.10822 3511 ft 204 kts 167°
2026-05-07 03:19 37.52368 -87.11041 3304 ft 199 kts 214°
2026-05-07 03:19 37.51484 -87.12304 3107 ft 188 kts 256°
2026-05-07 03:19 37.51411 -87.13867 2905 ft 175 kts 293°
2026-05-07 03:20 37.52036 -87.15125 2709 ft 166 kts 324°
2026-05-07 03:20 37.53052 -87.15686 2567 ft 158 kts 356°
2026-05-07 03:20 37.54130 -87.15739 2582 ft 153 kts 359°
2026-05-07 03:20 37.55235 -87.15784 2569 ft 160 kts 359°
2026-05-07 03:21 37.56382 -87.15842 2566 ft 166 kts 359°
2026-05-07 03:21 37.57568 -87.15902 2529 ft 173 kts 359°
2026-05-07 03:21 37.58764 -87.15963 2349 ft 171 kts 359°
2026-05-07 03:21 37.59943 -87.16022 2268 ft 162 kts 359°
2026-05-07 03:22 37.61052 -87.16080 2281 ft 155 kts 358°
2026-05-07 03:22 37.62118 -87.16134 2284 ft 152 kts 358°
2026-05-07 03:22 37.63164 -87.16188 2259 ft 142 kts 359°
2026-05-07 03:22 37.64139 -87.16236 2098 ft 137 kts 358°
2026-05-07 03:23 37.65058 -87.16282 1944 ft 125 kts 358°
2026-05-07 03:23 37.65919 -87.16325 1788 ft 121 kts 358°
2026-05-07 03:23 37.66763 -87.16368 1590 ft 121 kts 357°
2026-05-07 03:23 37.67603 -87.16416 1412 ft 119 kts 358°
2026-05-07 03:24 37.68418 -87.16460 1225 ft 117 kts 358°
2026-05-07 03:24 37.69232 -87.16503 1076 ft 116 kts 358°
2026-05-07 03:24 37.70048 -87.16546 957 ft 117 kts 358°
2026-05-07 03:24 37.70856 -87.16580 816 ft 116 kts 358°
2026-05-07 03:25 37.71675 -87.16619 653 ft 117 kts 358°
2026-05-07 03:25 37.72498 -87.16661 497 ft 117 kts 357°
2026-05-07 03:25 37.73286 -87.16699 409 ft 104 kts 357°
2026-05-07 03:25 37.73909 -87.16730 406 ft 72 kts 358°
2026-05-07 03:26 37.74348 -87.16751 408 ft 54 kts 358°
2026-05-07 03:26 37.74650 -87.16766 409 ft 32 kts 358°
2026-05-07 03:26 37.74809 -87.16774 410 ft 11 kts 358°
2026-05-07 03:26 37.74856 -87.16766 411 ft 3 kts 25°
2026-05-07 03:27 37.74882 -87.16715 411 ft 10 kts 88°
2026-05-07 03:27 37.74883 -87.16655 410 ft 4 kts 88°
2026-05-07 03:27 37.74885 -87.16589 410 ft 9 kts 87°
2026-05-07 03:27 37.74878 -87.16541 410 ft 4 kts 132°
2026-05-07 03:28 37.74848 -87.16524 410 ft 0 kts 152°
2026-05-07 03:28 37.74840 -87.16498 410 ft 4 kts 91°
2026-05-07 03:28 37.74841 -87.16473 410 ft 0 kts 89°
2026-05-07 03:31 37.74841 -87.16450 410 ft 6 kts 89°
2026-05-07 03:31 37.74842 -87.16413 410 ft 2 kts 88°
2026-05-07 03:31 37.74835 -87.16401 410 ft 0 kts 157°
2026-05-07 03:32 37.74840 -87.16403 410 ft 2 kts 160°
2026-05-07 03:32 37.74851 -87.16406 410 ft 0 kts 178°
2026-05-07 03:32 37.74853 -87.16406 410 ft 0 kts 178°